NOAA 16 DEB, 41201

Orbit data source: Space-Track

NOAA 16 DEB, 41201 is space debris in SSO originally from a launch on Thu, 21 Sep 2000 UTC launched from the Air Force Western Test Range (AFWTR). Debris objects in space refer to the collection of defunct objects orbiting the Earth. Examples of debris include non-operational satellites, rocket bodies, and fragments generated from explosions, collisions, or faulty payload assembly.

Loading next visibility...
Identifier
41201, 2000-055DE
Orbit
SSO
Country
Flag of USUS
Related business
Manufacturer
Unknown
Mission
Spacecraft
Bus & Motor
Unknown
Mass
Unknown
Launch date (UTC)
2000-09-21 (25 years ago)
Launch vehicle
Unknown
Launch site
Air Force Western Test Range (AFWTR)
Object type
Payload
Rocket body
Debris
Shape & HBR
Unknown shape, 0.1 m
Radar Cross Section
Small (<0.1 m²)

Expand to show TLE details & history
Last TLE update: 4 days ago

TLE from 4 days ago
0 NOAA 16 DEB
1 41201U 00055DE  25345.89550481  .00004315  00000-0  23379-2 0  9996
2 41201  98.7720  22.1370 0043337 140.4613 219.9734 14.12479509513575
Epoch: 2025-12-11T21:29Z
TLE epoch observation values (Epoch: 2025-12-11T21:29:31.615Z)
Latitude
-0.00003°
Longitude
-21.08964°
Altitude
877.87 km
Speed
7.401 km/s
True Right ascension
01h 28m 32s
True Declination
0° 00' 00"
Sunlit
Object was in full shadow at epoch
Visualization orbit readout
Latitude
Unknown
Longitude
Unknown
Altitude
Unknown
Speed
Unknown
Apparent Right ascension
Unknown
Apparent Declination
Unknown
Sunlit
N/A
Visualization observer readout
Local Sidereal Time
16:52:49
Azimuth
Unknown
Elevation
Unknown
Doppler factor
Unknown
Orbital elements
Apogee altitude
879.387 km
Perigee altitude
816.755 km
Semi-major axis
7,226.208 km
Eccentricity
0.00433
Inclination
98.772°
RAAN
22.137°
Arg. of periapsis
140.4613°
True anomaly
219.65569°
Mean anomaly
219.9734°
Eccentric anomaly
219.81441°
Mean motion
3.53328 °/min
Orbital period
101.89 mins
BSTAR
0.0023379
Loading maneuver chart data...
Computing Atmospheric mass density...
Loading historical data...
Loading historical data...
Loading historical data...
Loading historical data...
Loading historical data...
Loading historical data...
Loading historical data...

Documentation

Showing up to 5 results
|